Regional Weather Roundup
Issued by NWS Jackson, KY

Home | Current Version | Previous Version | Graphics & Text | Print | Product List | Glossary On
Versions: 1 2 3 4 5 6 7 8 9 10 11 12 13 14 15 16 17 18 19 20 21 22 23 24 25 26 27 28 29 30 31 32 33 34 35 36 37 38 39 40 41 42 43 44 45 46 47 48 49 50
297
ASUS43 KJKL 291310
RWRJKL

EAST KENTUCKY HOURLY WEATHER ROUNDUP
NATIONAL WEATHER SERVICE JACKSON KY
900 AM EDT THU SEP 29 2016

NOTE: "FAIR" INDICATES FEW OR NO CLOUDS BELOW 12,000 FEET WITH
NO SIGNIFICANT WEATHER AND/OR OBSTRUCTIONS TO VISIBILITY.

* THESE REPORTS ARE NOT UNDER NWS QUALITY CONTROL AND MAY NOT
  REPORT WEATHER SUCH AS PRECIPITATION AND FOG.

KYZ079-080-083-085-087-088-110-112-115-119-120-291400
...EASTERN KENTUCKY...

CITY           SKY/WX    TMP DP  RH WIND       PRES   REMARKS
JACKSON        CLOUDY    55  53  93 NW3       30.02R FOG
LONDON         CLOUDY    54  50  86 CALM      30.03R
SOMERSET*      CLOUDY    52  52 100 N6        30.05R
MONTICELLO*    CLOUDY    54  52  93 W8        30.06R
WILLIAMSBURG*  CLOUDY    50  50 100 W3        30.03R VSB 1/2
MIDDLESBORO*   CLOUDY    55  54  94 CALM      30.03R
HARLAN APT*    CLOUDY    55  54  94 CALM      30.02R
PIKE CO APT*   FOG       55  55 100 N3        30.02R VSB 3/4
BIG SANDY APT* CLOUDY    57  57 100 CALM      30.02R
MOREHEAD APT*  FOG       52  50  93 CALM      30.06R VSB 3/4
ASHLAND*       CLOUDY    59  55  88 N5        30.02R
$$

KYZ035-036-041-042-044-050-067-078-099-291400
...CENTRAL KENTUCKY...

CITY           SKY/WX    TMP DP  RH WIND       PRES   REMARKS
MT STERLING*   CLOUDY   N/A N/A N/A CALM      30.06R HAZE
FLEMING/MASON* CLOUDY    52  51  94 NW3       30.06R
DANVILLE*      MOSUNNY   52  50  93 CALM      30.06R
LEXINGTON      CLOUDY    54  51  90 CALM      30.04R
FRANKFORT      PTSUNNY   53  50  89 CALM      30.04R
LOUISVILLE     LGT RAIN  55  51  86 CALM      30.04R
LEBANON*         N/A     52  50  93 CALM      30.05R
GLASGOW*       MOSUNNY  N/A N/A N/A W3        30.05R
BOWLING GREEN  SUNNY     53  49  86 W6        30.05S
$$

KYZ091>093-OHZ055-061-077-WVZ005-015-034-035-042-291400
...SOUTHERN OHIO/WEST VIRGINIA...

CITY           SKY/WX    TMP DP  RH WIND       PRES   REMARKS
COVINGTON      CLOUDY    54  53  97 CALM      30.05R FOG
COLUMBUS       CLOUDY    58  57  97 E7        30.05R
DAYTON         PTSUNNY   55  54  96 E7        30.06R FOG
WILMINGTON     CLOUDY    53  51  93 NE3       30.06R
HUNTINGTON     CLOUDY    59  56  89 NW6       30.02R
CHARLESTON     CLOUDY    57  55  93 N5        30.01S
PINEVILLE*     LGT RAIN  57  54  89 MISG      30.04F
BECKLEY        CLOUDY    55  51  86 CALM      30.04R
BLUEFIELD      CLOUDY    57  55  93 VRB3      30.04R
LOGAN CO APT*  CLOUDY    57  55  94 CALM      29.99S
$$

VAZ002-007-008-TNZ017-027-036-066-071-291400
...SOUTHWEST VIRGINIA/EAST TENNESSEE...

CITY           SKY/WX    TMP DP  RH WIND       PRES   REMARKS
WISE*          CLOUDY    54  52  94 CALM      30.03R
JONESVILLE*    CLOUDY    57  57 100 CALM      30.03R
ABINGDON*      CLOUDY    59  54  83 E5        30.00R
BRISTOL        CLOUDY    57  53  86 CALM      29.99R
MORRISTOWN*    PTSUNNY   59  57  94 VRB5      29.98R
SEVIERVILLE*   CLOUDY    55  52  88 CALM      29.99R
KNOXVILLE      CLOUDY    60  54  80 NW3         N/A
OAK RIDGE      CLOUDY    62  53  72 CALM      30.01R
CROSSVILLE     PTSUNNY   52  49  89 N7        30.04R
NASHVILLE      MOSUNNY   54  47  77 W7        30.08R
$$

...KEY TO REMARKS...
VSB - VISIBILITY IN MILES
WCI - WIND CHILL INDEX
HX  - HEAT INDEX

$$




USA.gov is the U.S. government's official web portal to all federal, state and local government web resources and services.